GIA009 WIII-WIPP

Flight info

Callsign GIA009
Flight time 0h 44m
Altitude 28000
Route DOLTA W12 GUSKO
Aircraft B738/M-SDE2E3FGHIRWXY/LB1

Departure

Time 2026-04-22 10:51
Airport Soekarno-Hatta International Airport (WIII)

Arrival

Time 2026-04-22 11:35
Airport Sultan Mahmud Badaruddin II Airport (WIPP)
Time Latitude Longitude Altitude Speed Heading
2026-04-22 10:30 -6.11802 106.65953 37 ft 0 kts 248°
2026-04-22 10:41 -6.11802 106.65954 36 ft 1 kts 248°
2026-04-22 10:41 -6.11796 106.65968 36 ft 3 kts 242°
2026-04-22 10:41 -6.11785 106.65985 35 ft 3 kts 228°
2026-04-22 10:41 -6.11771 106.65999 36 ft 3 kts 206°
2026-04-22 10:42 -6.11754 106.66003 36 ft 2 kts 165°
2026-04-22 10:42 -6.11745 106.66001 35 ft 1 kts 156°
2026-04-22 10:42 -6.11744 106.66000 37 ft 0 kts 156°
2026-04-22 10:44 -6.11745 106.66000 34 ft 0 kts 156°
2026-04-22 10:44 -6.11784 106.66024 37 ft 10 kts 136°
2026-04-22 10:44 -6.11787 106.66101 37 ft 13 kts 68°
2026-04-22 10:44 -6.11749 106.66198 37 ft 16 kts 67°
2026-04-22 10:45 -6.11703 106.66313 37 ft 19 kts 69°
2026-04-22 10:45 -6.11645 106.66400 37 ft 14 kts 16°
2026-04-22 10:45 -6.11546 106.66373 37 ft 16 kts 338°
2026-04-22 10:45 -6.11431 106.66328 35 ft 19 kts 339°
2026-04-22 10:46 -6.11357 106.66247 38 ft 17 kts 262°
2026-04-22 10:46 -6.11404 106.66122 38 ft 21 kts 248°
2026-04-22 10:46 -6.11441 106.66028 36 ft 23 kts 248°
2026-04-22 10:46 -6.11505 106.65865 37 ft 13 kts 247°
2026-04-22 10:47 -6.11543 106.65770 35 ft 16 kts 248°
2026-04-22 10:47 -6.11591 106.65652 37 ft 20 kts 248°
2026-04-22 10:47 -6.11646 106.65513 35 ft 23 kts 248°
2026-04-22 10:47 -6.11708 106.65356 38 ft 25 kts 249°
2026-04-22 10:48 -6.11753 106.65244 38 ft 27 kts 248°
2026-04-22 10:48 -6.11852 106.64996 38 ft 30 kts 248°
2026-04-22 10:48 -6.11904 106.64863 37 ft 32 kts 248°
2026-04-22 10:48 -6.11988 106.64655 36 ft 32 kts 248°
2026-04-22 10:49 -6.12073 106.64442 36 ft 34 kts 248°
2026-04-22 10:49 -6.12163 106.64216 38 ft 35 kts 248°
2026-04-22 10:49 -6.12244 106.64015 38 ft 19 kts 250°
2026-04-22 10:49 -6.12215 106.63899 40 ft 18 kts 333°
2026-04-22 10:50 -6.12105 106.63910 39 ft 14 kts 22°
2026-04-22 10:50 -6.12055 106.63996 37 ft 27 kts 69°
2026-04-22 10:50 -6.11870 106.64461 39 ft 116 kts 68°
2026-04-22 10:50 -6.11463 106.65439 213 ft 176 kts 67°
2026-04-22 10:51 -6.11066 106.66703 877 ft 204 kts 70°
2026-04-22 10:51 -6.10355 106.67887 1943 ft 193 kts 36°
2026-04-22 10:51 -6.09153 106.68629 2678 ft 212 kts 30°
2026-04-22 10:51 -6.07796 106.69423 2945 ft 240 kts 31°
2026-04-22 10:52 -6.06306 106.70323 3251 ft 264 kts 32°
2026-04-22 10:52 -6.04727 106.71320 4073 ft 269 kts 33°
2026-04-22 10:52 -6.03159 106.72336 5066 ft 270 kts 34°
2026-04-22 10:52 -6.01576 106.73374 5988 ft 273 kts 34°
2026-04-22 10:53 -5.99915 106.74334 6799 ft 279 kts 20°
2026-04-22 10:53 -5.97980 106.74553 7645 ft 285 kts 353°
2026-04-22 10:53 -5.96123 106.73833 8492 ft 292 kts 324°
2026-04-22 10:53 -5.94799 106.72267 9336 ft 298 kts 298°
2026-04-22 10:54 -5.93910 106.70396 10116 ft 303 kts 295°
2026-04-22 10:54 -5.93043 106.68442 10851 ft 308 kts 295°
2026-04-22 10:54 -5.92161 106.66473 11658 ft 311 kts 295°
2026-04-22 10:54 -5.91254 106.64491 12414 ft 314 kts 296°
2026-04-22 10:55 -5.90325 106.62482 13169 ft 319 kts 296°
2026-04-22 10:55 -5.89383 106.60454 13873 ft 323 kts 296°
2026-04-22 10:55 -5.88426 106.58402 14562 ft 326 kts 296°
2026-04-22 10:55 -5.87458 106.56327 15257 ft 329 kts 296°
2026-04-22 10:56 -5.86483 106.54236 15935 ft 332 kts 296°
2026-04-22 10:56 -5.85497 106.52123 16603 ft 336 kts 296°
2026-04-22 10:56 -5.84500 106.49983 17267 ft 340 kts 296°
2026-04-22 10:56 -5.83504 106.47849 17918 ft 343 kts 296°
2026-04-22 10:57 -5.82488 106.45668 18503 ft 347 kts 296°
2026-04-22 10:57 -5.81463 106.43464 19091 ft 349 kts 296°
2026-04-22 10:57 -5.80434 106.41245 19684 ft 351 kts 295°
2026-04-22 10:57 -5.79398 106.39013 20263 ft 354 kts 295°
2026-04-22 10:58 -5.78353 106.36760 20821 ft 357 kts 295°
2026-04-22 10:58 -5.77298 106.34486 21393 ft 360 kts 295°
2026-04-22 10:58 -5.76234 106.32196 21953 ft 363 kts 295°
2026-04-22 10:58 -5.75163 106.29890 22504 ft 366 kts 295°
2026-04-22 10:59 -5.73911 106.27654 23007 ft 369 kts 310°
2026-04-22 10:59 -5.71998 106.25938 23498 ft 371 kts 328°
2026-04-22 10:59 -5.69771 106.24626 23972 ft 372 kts 331°
2026-04-22 10:59 -5.67495 106.23370 24423 ft 374 kts 332°
2026-04-22 11:00 -5.65202 106.22120 24864 ft 377 kts 332°
2026-04-22 11:00 -5.62857 106.20834 24948 ft 392 kts 332°
2026-04-22 11:00 -5.60428 106.19486 25032 ft 404 kts 331°
2026-04-22 11:00 -5.57929 106.18087 25103 ft 416 kts 331°
2026-04-22 11:01 -5.55371 106.16648 25195 ft 427 kts 331°
2026-04-22 11:01 -5.52760 106.15173 25418 ft 432 kts 331°
2026-04-22 11:01 -5.50177 106.13714 25796 ft 432 kts 331°
2026-04-22 11:01 -5.47522 106.12214 26216 ft 432 kts 331°
2026-04-22 11:02 -5.44930 106.10749 26568 ft 434 kts 331°
2026-04-22 11:02 -5.42260 106.09242 26914 ft 435 kts 331°
2026-04-22 11:02 -5.39657 106.07774 27370 ft 433 kts 331°
2026-04-22 11:02 -5.37033 106.06293 27806 ft 432 kts 330°
2026-04-22 11:03 -5.34417 106.04817 27813 ft 431 kts 330°
2026-04-22 11:03 -5.31803 106.03341 27831 ft 431 kts 330°
2026-04-22 11:03 -5.29187 106.01864 27834 ft 431 kts 330°
2026-04-22 11:03 -5.26567 106.00385 27842 ft 431 kts 330°
2026-04-22 11:04 -5.23948 105.98907 27844 ft 432 kts 330°
2026-04-22 11:04 -5.21327 105.97427 27841 ft 432 kts 330°
2026-04-22 11:04 -5.18705 105.95946 27837 ft 433 kts 330°
2026-04-22 11:04 -5.16112 105.94483 27833 ft 433 kts 330°
2026-04-22 11:05 -5.13492 105.93005 27834 ft 432 kts 330°
2026-04-22 11:05 -5.10871 105.91523 27832 ft 432 kts 330°
2026-04-22 11:05 -5.08255 105.90035 27829 ft 432 kts 330°
2026-04-22 11:05 -5.05645 105.88546 27828 ft 431 kts 330°
2026-04-22 11:06 -5.03035 105.87056 27830 ft 431 kts 330°
2026-04-22 11:06 -5.00428 105.85568 27828 ft 430 kts 330°
2026-04-22 11:06 -4.97826 105.84083 27828 ft 430 kts 330°
2026-04-22 11:06 -4.95223 105.82598 27825 ft 430 kts 330°
2026-04-22 11:07 -4.92622 105.81116 27825 ft 430 kts 330°
2026-04-22 11:07 -4.90021 105.79633 27821 ft 429 kts 330°
2026-04-22 11:07 -4.87454 105.78170 27821 ft 429 kts 330°
2026-04-22 11:07 -4.84861 105.76693 27819 ft 429 kts 330°
2026-04-22 11:08 -4.82262 105.75212 27818 ft 429 kts 330°
2026-04-22 11:08 -4.79664 105.73732 27820 ft 429 kts 330°
2026-04-22 11:08 -4.77072 105.72255 27820 ft 429 kts 330°
2026-04-22 11:08 -4.74478 105.70778 27815 ft 429 kts 330°
2026-04-22 11:09 -4.71881 105.69299 27813 ft 429 kts 330°
2026-04-22 11:09 -4.69280 105.67818 27815 ft 429 kts 330°
2026-04-22 11:09 -4.66683 105.66339 27811 ft 429 kts 330°
2026-04-22 11:09 -4.64086 105.64860 27811 ft 429 kts 330°
2026-04-22 11:10 -4.61484 105.63378 27812 ft 429 kts 330°
2026-04-22 11:10 -4.58880 105.61896 27812 ft 430 kts 330°
2026-04-22 11:10 -4.56315 105.60436 27808 ft 430 kts 330°
2026-04-22 11:10 -4.53714 105.58955 27809 ft 430 kts 330°
2026-04-22 11:11 -4.51110 105.57473 27809 ft 429 kts 330°
2026-04-22 11:11 -4.48543 105.56012 27798 ft 420 kts 330°
2026-04-22 11:11 -4.46008 105.54569 27803 ft 418 kts 330°
2026-04-22 11:11 -4.43489 105.53136 27802 ft 415 kts 330°
2026-04-22 11:12 -4.40975 105.51705 27619 ft 418 kts 330°
2026-04-22 11:12 -4.38458 105.50273 27353 ft 412 kts 330°
2026-04-22 11:12 -4.35972 105.48859 26917 ft 409 kts 330°
2026-04-22 11:12 -4.33510 105.47458 26496 ft 405 kts 330°
2026-04-22 11:13 -4.31066 105.46068 26057 ft 403 kts 330°
2026-04-22 11:13 -4.28637 105.44687 25612 ft 400 kts 330°
2026-04-22 11:13 -4.26217 105.43310 25060 ft 402 kts 330°
2026-04-22 11:13 -4.23780 105.41925 24550 ft 402 kts 331°
2026-04-22 11:14 -4.21351 105.40543 24072 ft 401 kts 330°
2026-04-22 11:14 -4.18924 105.39163 23617 ft 400 kts 331°
2026-04-22 11:14 -4.16534 105.37804 23127 ft 399 kts 331°
2026-04-22 11:14 -4.14125 105.36435 22641 ft 397 kts 331°
2026-04-22 11:15 -4.11737 105.35077 22173 ft 390 kts 331°
2026-04-22 11:15 -4.09395 105.33745 21743 ft 386 kts 331°
2026-04-22 11:15 -4.07064 105.32420 21313 ft 384 kts 331°
2026-04-22 11:15 -4.04752 105.31106 20886 ft 381 kts 331°
2026-04-22 11:16 -4.02451 105.29798 20459 ft 379 kts 331°
2026-04-22 11:16 -4.00168 105.28500 20034 ft 376 kts 331°
2026-04-22 11:16 -3.97888 105.27204 19597 ft 375 kts 331°
2026-04-22 11:16 -3.95621 105.25916 19167 ft 374 kts 331°
2026-04-22 11:17 -3.93371 105.24637 18739 ft 372 kts 331°
2026-04-22 11:17 -3.91117 105.23358 18286 ft 372 kts 331°
2026-04-22 11:17 -3.88878 105.22099 17742 ft 373 kts 332°
2026-04-22 11:17 -3.86614 105.20831 17260 ft 369 kts 332°
2026-04-22 11:18 -3.84401 105.19591 16834 ft 361 kts 332°
2026-04-22 11:18 -3.82213 105.18367 16429 ft 358 kts 332°
2026-04-22 11:18 -3.80043 105.17151 16021 ft 356 kts 332°
2026-04-22 11:18 -3.77886 105.15942 15624 ft 354 kts 332°
2026-04-22 11:19 -3.75740 105.14739 15220 ft 352 kts 332°
2026-04-22 11:19 -3.73626 105.13553 14817 ft 344 kts 332°
2026-04-22 11:19 -3.71541 105.12384 14431 ft 343 kts 332°
2026-04-22 11:19 -3.69460 105.11217 14045 ft 342 kts 332°
2026-04-22 11:20 -3.67409 105.10067 13645 ft 341 kts 330°
2026-04-22 11:20 -3.65345 105.08910 13226 ft 337 kts 330°
2026-04-22 11:20 -3.63311 105.07770 12823 ft 334 kts 330°
2026-04-22 11:20 -3.61292 105.06637 12432 ft 332 kts 330°
2026-04-22 11:21 -3.59282 105.05510 12048 ft 330 kts 330°
2026-04-22 11:21 -3.57282 105.04388 11666 ft 328 kts 330°
2026-04-22 11:21 -3.55293 105.03273 11287 ft 326 kts 330°
2026-04-22 11:21 -3.53320 105.02168 10912 ft 324 kts 330°
2026-04-22 11:22 -3.51309 105.01161 10600 ft 321 kts 338°
2026-04-22 11:22 -3.49214 105.00473 10373 ft 313 kts 343°
2026-04-22 11:22 -3.47151 104.99912 10265 ft 303 kts 345°
2026-04-22 11:22 -3.45139 104.99385 10137 ft 294 kts 345°
2026-04-22 11:23 -3.43188 104.98866 10019 ft 286 kts 344°
2026-04-22 11:23 -3.41280 104.98348 9790 ft 283 kts 344°
2026-04-22 11:23 -3.39389 104.97825 9494 ft 282 kts 344°
2026-04-22 11:23 -3.37498 104.97296 9196 ft 281 kts 343°
2026-04-22 11:24 -3.35647 104.96774 8901 ft 280 kts 343°
2026-04-22 11:24 -3.33773 104.96244 8603 ft 279 kts 343°
2026-04-22 11:24 -3.31902 104.95712 8301 ft 278 kts 343°
2026-04-22 11:24 -3.30042 104.95183 8010 ft 277 kts 343°
2026-04-22 11:25 -3.28187 104.94655 7725 ft 276 kts 343°
2026-04-22 11:25 -3.26343 104.94129 7441 ft 275 kts 343°
2026-04-22 11:25 -3.24498 104.93604 7134 ft 276 kts 344°
2026-04-22 11:25 -3.22643 104.93075 6782 ft 277 kts 344°
2026-04-22 11:26 -3.20802 104.92550 6426 ft 272 kts 344°
2026-04-22 11:26 -3.18986 104.92032 6075 ft 269 kts 344°
2026-04-22 11:26 -3.17227 104.91529 5706 ft 264 kts 344°
2026-04-22 11:26 -3.15453 104.91023 5335 ft 260 kts 344°
2026-04-22 11:27 -3.13726 104.90531 4979 ft 256 kts 344°
2026-04-22 11:27 -3.12041 104.90050 4643 ft 254 kts 344°
2026-04-22 11:27 -3.10345 104.89567 4313 ft 251 kts 345°
2026-04-22 11:27 -3.08679 104.89120 4038 ft 243 kts 352°
2026-04-22 11:28 -3.07054 104.89261 3863 ft 227 kts 18°
2026-04-22 11:28 -3.05636 104.89807 3732 ft 210 kts 24°
2026-04-22 11:28 -3.04342 104.90371 3588 ft 197 kts 24°
2026-04-22 11:28 -3.03097 104.90912 3476 ft 194 kts 24°
2026-04-22 11:29 -3.01857 104.91445 3366 ft 194 kts 24°
2026-04-22 11:29 -3.00583 104.91868 3229 ft 196 kts
2026-04-22 11:29 -2.99334 104.91417 3109 ft 195 kts 315°
2026-04-22 11:29 -2.98606 104.90287 3028 ft 194 kts 300°
2026-04-22 11:30 -2.97935 104.89116 2897 ft 198 kts 299°
2026-04-22 11:30 -2.97321 104.87877 2758 ft 199 kts 295°
2026-04-22 11:30 -2.96772 104.86621 2630 ft 193 kts 293°
2026-04-22 11:30 -2.96263 104.85412 2484 ft 184 kts 293°
2026-04-22 11:31 -2.95772 104.84236 2404 ft 182 kts 293°
2026-04-22 11:31 -2.95284 104.83067 2401 ft 182 kts 293°
2026-04-22 11:31 -2.94786 104.81875 2239 ft 187 kts 293°
2026-04-22 11:31 -2.94296 104.80701 2038 ft 175 kts 293°
2026-04-22 11:32 -2.93843 104.79618 1791 ft 164 kts 293°
2026-04-22 11:32 -2.93410 104.78582 1590 ft 161 kts 294°
2026-04-22 11:32 -2.92976 104.77544 1379 ft 161 kts 293°
2026-04-22 11:32 -2.92544 104.76511 1187 ft 161 kts 294°
2026-04-22 11:33 -2.92113 104.75475 967 ft 160 kts 294°
2026-04-22 11:33 -2.91688 104.74461 789 ft 157 kts 294°
2026-04-22 11:33 -2.91411 104.73796 654 ft 156 kts 294°
2026-04-22 11:33 -2.90856 104.72460 400 ft 154 kts 292°
2026-04-22 11:34 -2.90459 104.71472 149 ft 151 kts 295°
2026-04-22 11:34 -2.90075 104.70567 24 ft 133 kts 293°
2026-04-22 11:34 -2.89754 104.69812 18 ft 98 kts 292°
2026-04-22 11:34 -2.89547 104.69321 14 ft 53 kts 293°
2026-04-22 11:35 -2.89491 104.69241 16 ft 10 kts 335°
2026-04-22 11:35 -2.89394 104.69261 16 ft 10 kts 27°
2026-04-22 11:35 -2.89370 104.69288 17 ft 3 kts 72°
2026-04-22 11:35 -2.89378 104.69337 18 ft 8 kts 108°
2026-04-22 11:36 -2.89407 104.69408 18 ft 17 kts 113°
2026-04-22 11:36 -2.89445 104.69496 17 ft 25 kts 112°
2026-04-22 11:36 -2.89527 104.69689 17 ft 35 kts 114°
2026-04-22 11:36 -2.89631 104.69937 18 ft 40 kts 112°
2026-04-22 11:37 -2.89718 104.70142 23 ft 24 kts 112°
2026-04-22 11:37 -2.89703 104.70222 24 ft 13 kts 35°
2026-04-22 11:37 -2.89654 104.70280 25 ft 10 kts 86°
2026-04-22 11:37 -2.89673 104.70346 27 ft 10 kts 113°
2026-04-22 11:38 -2.89688 104.70397 27 ft 6 kts 79°
2026-04-22 11:38 -2.89681 104.70405 29 ft 1 kts 32°
2026-04-22 11:38 -2.89649 104.70421 28 ft 5 kts 24°
2026-04-22 11:39 -2.89637 104.70427 26 ft 1 kts 23°
2026-04-22 11:39 -2.89625 104.70432 27 ft 1 kts 23°
2026-04-22 11:39 -2.89614 104.70437 28 ft 2 kts 23°
2026-04-22 11:39 -2.89610 104.70438 28 ft 0 kts 23°
2026-04-22 11:40 -2.89608 104.70439 27 ft 0 kts 23°
2026-04-22 11:40 -2.89607 104.70439 27 ft 0 kts 23°